<?xml version='1.0' encoding='UTF-8'?><gpx version="1.1" creator="JPX - https://github.com/jenetics/jpx" xmlns="http://www.topografix.com/GPX/1/1"><trk><trkseg><trkpt lat="58.042041486974846" lon="56.75390867088346"><ele>121.0</ele><time>2026-05-03T06:07:32Z</time></trkpt><trkpt lat="58.04203614154979" lon="56.75407344729375"><ele>121.0</ele><time>2026-05-03T06:07:56.999Z</time></trkpt><trkpt lat="58.04203248479135" lon="56.753948752425686"><ele>121.0</ele><time>2026-05-03T06:08:02.999Z</time></trkpt><trkpt lat="58.042023917532575" lon="56.75382434376927"><ele>121.0</ele><time>2026-05-03T06:08:08.999Z</time></trkpt><trkpt lat="58.04200524408901" lon="56.753700789319005"><ele>121.0</ele><time>2026-05-03T06:08:11.999Z</time></trkpt><trkpt lat="58.04193605695904" lon="56.75365649733045"><ele>121.0</ele><time>2026-05-03T06:08:15.999Z</time></trkpt><trkpt lat="58.041966715760836" lon="56.753540005754495"><ele>121.0</ele><time>2026-05-03T06:08:19.999Z</time></trkpt><trkpt lat="58.041966715760836" lon="56.753540005754495"><ele>121.0</ele><time>2026-05-03T06:08:19.999Z</time></trkpt><trkpt lat="58.041966715760836" lon="56.753540005754495"><ele>121.0</ele><time>2026-05-03T06:08:19.999Z</time></trkpt><trkpt lat="58.041966715760836" lon="56.753540005754495"><ele>121.0</ele><time>2026-05-03T06:08:19.999Z</time></trkpt><trkpt lat="58.041966715760836" lon="56.753540005754495"><ele>121.0</ele><time>2026-05-03T06:08:19.999Z</time></trkpt><trkpt lat="58.041966715760836" lon="56.753540005754495"><ele>121.0</ele><time>2026-05-03T06:08:19.999Z</time></trkpt><trkpt lat="58.041966715760836" lon="56.753540005754495"><ele>121.0</ele><time>2026-05-03T06:08:19.999Z</time></trkpt><trkpt lat="58.041966715760836" lon="56.753540005754495"><ele>121.0</ele><time>2026-05-03T06:08:19.999Z</time></trkpt><trkpt lat="58.041966715760836" lon="56.753540005754495"><ele>121.0</ele><time>2026-05-03T06:08:19.999Z</time></trkpt><trkpt lat="58.041966715760836" lon="56.753540005754495"><ele>121.0</ele><time>2026-05-03T06:08:19.999Z</time></trkpt><trkpt lat="58.041966715760836" lon="56.753540005754495"><ele>121.0</ele><time>2026-05-03T06:08:19.999Z</time></trkpt><trkpt lat="58.041966715760836" lon="56.753540005754495"><ele>121.0</ele><time>2026-05-03T06:08:19.999Z</time></trkpt><trkpt lat="58.041966715760836" lon="56.753540005754495"><ele>121.0</ele><time>2026-05-03T06:08:19.999Z</time></trkpt><trkpt lat="58.041966715760836" lon="56.753540005754495"><ele>121.0</ele><time>2026-05-03T06:08:19.999Z</time></trkpt><trkpt lat="58.041966715760836" lon="56.753540005754495"><ele>121.0</ele><time>2026-05-03T06:08:19.999Z</time></trkpt><trkpt lat="58.041966715760836" lon="56.753540005754495"><ele>121.0</ele><time>2026-05-03T06:08:19.999Z</time></trkpt><trkpt lat="58.041966715760836" lon="56.753540005754495"><ele>121.0</ele><time>2026-05-03T06:08:19.999Z</time></trkpt><trkpt lat="58.041966715760836" lon="56.753540005754495"><ele>121.0</ele><time>2026-05-03T06:08:19.999Z</time></trkpt><trkpt lat="58.041966715760836" lon="56.753540005754495"><ele>121.0</ele><time>2026-05-03T06:08:19.999Z</time></trkpt><trkpt lat="58.041966715760836" lon="56.753540005754495"><ele>121.0</ele><time>2026-05-03T06:08:19.999Z</time></trkpt><trkpt lat="58.041966715760836" lon="56.753540005754495"><ele>121.0</ele><time>2026-05-03T06:08:19.999Z</time></trkpt><trkpt lat="58.041966715760836" lon="56.753540005754495"><ele>121.0</ele><time>2026-05-03T06:08:19.999Z</time></trkpt><trkpt lat="58.041966715760836" lon="56.753540005754495"><ele>121.0</ele><time>2026-05-03T06:08:19.999Z</time></trkpt><trkpt lat="58.041966715760836" lon="56.753540005754495"><ele>121.0</ele><time>2026-05-03T06:08:19.999Z</time></trkpt><trkpt lat="58.041966715760836" lon="56.753540005754495"><ele>121.0</ele><time>2026-05-03T06:08:19.999Z</time></trkpt><trkpt lat="58.041966715760836" lon="56.753540005754495"><ele>121.0</ele><time>2026-05-03T06:08:19.999Z</time></trkpt></trkseg></trk></gpx>